Weather History for Inverness, United Kingdom

Change the Weather History Date:

Saturday, September 7, 2013

  Actual Average Record
Temperature  
Mean Temperature 56 °F -  
Max Temperature 64 °F 57 °F 71 °F (1998)
Min Temperature 48 °F 45 °F 39 °F (2003)
Degree Days  
Heating Degree Days 9    
Growing Degree Days 6 (Base 50)    
Moisture  
Dew Point 48 °F    
Average Humidity 82    
Maximum Humidity 100    
Minimum Humidity 52    
Precipitation  
Precipitation 0.00 in - - ()
Sea Level Pressure  
Sea Level Pressure 29.90 in    
Wind  
Wind Speed 11 mph ()    
Max Wind Speed 20 mph    
Max Gust Speed -    
Visibility 4.9 miles    
Events Rain    
Averages and records for this station are not official NWS values.
T = Trace of Precipitation, MM = Missing Value Source: Averaged Metar Reports

Daily Weather History Graph

Daily Weather History Graph

Search for Another Location

Airport:

Trip Planner

Search our weather history database for the weather conditions in past years. The results will help you decide how hot, cold, wet, or windy it might be!

Date:

Astronomy

Sep. 07, 2013 Rise Set
Actual Time 6:29 AM BST 7:57 PM BST
Civil Twilight 5:49 AM BST 8:37 PM BST
Nautical Twilight 4:59 AM BST 9:26 PM BST
Astronomical Twilight 4:01 AM BST 10:23 PM BST
Moon 9:05 AM BST (9/7) 8:05 PM BST (9/7)
Length of Visible Light 14h 47m
Length of Day
13h 27m
Waxing Crescent, 4% of the Moon is Illuminated
Sep 7
Waxing Crescent
Sep 12
First Quarter
Sep 19
Full
Sep 27
Last Quarter
Oct 5
New

Hourly Weather History & Observations

Time (BST) Temp. Dew Point Humidity Pressure Visibility Wind Dir Wind Speed Gust Speed Precip Events Conditions
12:20 AM 50.0 °F 44.6 °F 82% 30.01 in 6.2 mi North 12.7 mph - N/A   Mostly Cloudy
12:50 AM 50.0 °F 44.6 °F 82% 29.98 in 6.2 mi North 15.0 mph - N/A   Mostly Cloudy
1:20 AM 50.0 °F 44.6 °F 82% 29.98 in 6.2 mi North 17.3 mph - N/A   Mostly Cloudy
1:50 AM 50.0 °F 44.6 °F 82% 29.98 in 6.2 mi North 15.0 mph - N/A   Mostly Cloudy
2:20 AM 50.0 °F 44.6 °F 82% 29.98 in 6.2 mi North 12.7 mph - N/A   Mostly Cloudy
2:50 AM 50.0 °F 44.6 °F 82% 29.95 in 6.2 mi North 12.7 mph - N/A   Mostly Cloudy
3:20 AM 50.0 °F 44.6 °F 82% 29.95 in 6.2 mi NNE 13.8 mph - N/A Rain Light Rain
3:50 AM 48.2 °F 46.4 °F 93% 29.95 in 5.0 mi North 9.2 mph - N/A Rain Light Rain
4:20 AM 48.2 °F 46.4 °F 93% 29.95 in 6.2 mi North 9.2 mph - N/A Rain Light Rain
4:50 AM 48.2 °F 46.4 °F 93% 29.95 in 3.7 mi North 9.2 mph - N/A Rain Light Rain
5:20 AM 48.2 °F 46.4 °F 93% 29.92 in 3.7 mi North 10.4 mph - N/A Rain Light Rain
5:50 AM 48.2 °F 46.4 °F 93% 29.92 in 3.7 mi North 11.5 mph - N/A Rain Light Rain
6:20 AM 48.2 °F 48.2 °F 100% 29.92 in 2.2 mi North 11.5 mph - N/A Rain Light Rain
6:50 AM 48.2 °F 48.2 °F 100% 29.89 in 2.2 mi North 13.8 mph - N/A Rain Light Rain
7:20 AM 50.0 °F 48.2 °F 94% 29.89 in 1.6 mi North 13.8 mph - N/A Rain Rain
7:50 AM 50.0 °F 48.2 °F 94% 29.89 in 1.2 mi North 12.7 mph - N/A Rain Rain
8:20 AM 50.0 °F 50.0 °F 100% 29.89 in 1.2 mi NNE 17.3 mph - N/A Rain Rain
8:50 AM 51.8 °F 50.0 °F 94% 29.86 in 1.2 mi North 17.3 mph - N/A Rain Rain
9:20 AM 51.8 °F 51.8 °F 100% 29.86 in 1.6 mi NNE 18.4 mph - N/A Rain Rain
9:50 AM 51.8 °F 51.8 °F 100% 29.86 in 1.6 mi NNE 19.6 mph - N/A Rain Rain
10:20 AM 53.6 °F 53.6 °F 100% 29.83 in 1.6 mi NNE 18.4 mph - N/A Rain Heavy Rain
10:50 AM 53.6 °F 53.6 °F 100% 29.86 in 1.9 mi NE 17.3 mph - N/A Rain Light Rain
11:20 AM 55.4 °F 55.4 °F 100% 29.83 in 1.9 mi NE 17.3 mph - N/A   Mostly Cloudy
11:50 AM 59.0 °F 57.2 °F 94% 29.83 in 3.7 mi NE 12.7 mph - N/A   Mostly Cloudy
12:20 PM 57.2 °F 57.2 °F 100% 29.86 in 5.0 mi NE 10.4 mph - N/A   Scattered Clouds
12:50 PM 59.0 °F 57.2 °F 94% 29.83 in 6.2 mi NE 11.5 mph - N/A   Scattered Clouds
1:20 PM 60.8 °F 57.2 °F 88% 29.86 in 6.2 mi NE 10.4 mph - N/A   Partly Cloudy
1:50 PM 60.8 °F 51.8 °F 72% 29.86 in 6.2 mi East 6.9 mph - N/A   Partly Cloudy
2:20 PM 64.4 °F 51.8 °F 64% 29.86 in 6.2 mi East 9.2 mph - N/A   Partly Cloudy
2:50 PM 64.4 °F 48.2 °F 56% 29.86 in 6.2 mi ESE 11.5 mph - N/A   Partly Cloudy
3:20 PM 64.4 °F 46.4 °F 52% 29.86 in 6.2 mi East 13.8 mph - N/A   Partly Cloudy
3:50 PM 64.4 °F 48.2 °F 56% 29.86 in 6.2 mi ESE 11.5 mph - N/A   Scattered Clouds
4:20 PM 60.8 °F 48.2 °F 63% 29.86 in 6.2 mi East 9.2 mph - N/A   Scattered Clouds
4:50 PM 62.6 °F 44.6 °F 52% 29.86 in 6.2 mi ESE 15.0 mph - N/A   Partly Cloudy
5:20 PM 62.6 °F 44.6 °F 52% 29.86 in 6.2 mi ESE 12.7 mph - N/A   Partly Cloudy
5:50 PM 62.6 °F 46.4 °F 55% 29.86 in 6.2 mi East 10.4 mph - N/A   Partly Cloudy
6:20 PM 60.8 °F 44.6 °F 55% 29.89 in 6.2 mi ESE 9.2 mph - N/A   Partly Cloudy
6:50 PM 59.0 °F 44.6 °F 59% 29.89 in 6.2 mi ESE 9.2 mph - N/A   Partly Cloudy
7:20 PM 57.2 °F 46.4 °F 67% 29.89 in 6.2 mi ESE 10.4 mph - N/A   Partly Cloudy
7:50 PM 55.4 °F 46.4 °F 72% 29.89 in 6.2 mi East 6.9 mph - N/A   Partly Cloudy
8:20 PM 55.4 °F 46.4 °F 72% 29.92 in 6.2 mi East 8.1 mph - N/A   Partly Cloudy
8:50 PM 53.6 °F 46.4 °F 77% 29.92 in 6.2 mi East 8.1 mph - N/A   Unknown
9:20 PM 51.8 °F 46.4 °F 82% 29.92 in 6.2 mi East 9.2 mph - N/A   Unknown
9:50 PM 50.0 °F 46.4 °F 87% 29.92 in 6.2 mi ESE 4.6 mph - N/A   Unknown
10:20 PM 51.8 °F 46.4 °F 82% 29.92 in 6.2 mi ESE 9.2 mph - N/A   Unknown
10:50 PM 51.8 °F 46.4 °F 82% 29.95 in 6.2 mi East 8.1 mph - N/A   Unknown
11:20 PM 50.0 °F 46.4 °F 87% 29.95 in 6.2 mi ESE 6.9 mph - N/A   Unknown
11:50 PM 48.2 °F 46.4 °F 93% 29.95 in 6.2 mi ESE 5.8 mph - N/A   Unknown